Location: Recife
(8.0585°S, 34.8848°W)
Time: 07:44:54
(UTC-03:00)

Courier 1B Rocket - Pass Details

Date: 19 April 2026
Orbit: 920 x 1201 km, 28.2° (Epoch: 13 May)

Event Time Altitude Azimuth Distance (km) Brightness Sun altitude
Rises 08:17:16 0° 228° (SW) 3,741 7.6 40.9°
Reaches altitude 10° 08:21:31 10° 203° (SSW) 2,855 7.2 41.9°
Maximum altitude 08:24:58 14° 173° (S) 2,616 7.3 42.7°
Drops below altitude 10° 08:28:32 10° 144° (SE) 2,960 7.8 43.5°
Sets 08:33:05 0° 120° (ESE) 3,981 8.5 44.5°
